Retour au catalogue

KUIPER-00013

ActifCommunicationsLEO
NORAD 63729·PAYLOAD·🇺🇸 United States

Lancé Apr 28, 2025 depuis Cape Canaveral Space Force Station

Loading…

Prochains Passages (prochaines 24 heures)

TLE

FraisSource: CelesTrak SupGP

Époque: Sep 14, 2026, 20:10 UTC

1 63729C 25088F   26257.84033565  .00005472  00000+0  71646-3 0  2577
2 63729  51.9024 351.6979 0000490  94.0375 131.7445 14.79915194    17

Suivez KUIPER-00013 en temps réel avec AllMySat

Download on the App Store